SCP
0 0 0 0 0 -0 0 0 0 0 0 0 0 -0 0 0 0 0 0 0 0 0 0 0 0 0 0 0 0 0 0 0 0 0 0 0 0 0 0 0 0 0 0 0
0 0 0 0 0 0 0 0 0 0 0 0 -0 0 0 0 0 0 0 0 0 0 0 0 0 0 0 0 0 0 0 0 0 0 0 0 0 0 0 0 0 0 0 0
0 0 0 0 0 0 0 0 0 0 0 0 0 0 0 0 0 0 0 0 0 0 0 0 0 0 0 0 0 0 0 0 0 0 0 0 0 0 0 0 0 0 0 0
0 0 0 0 -0 0 0 -0 0 0 0 0 0 0 0 0 0 0 0 0 0 0 0 0 0 0 0 0 0 -0 0 0 0 0 0 0 0 0 0 0 0 0 0 0
0 0 0 0 0 0 0 0 0 0 0 0 0 0 0 0 0 0 0 0 0 0 0 0 0 -0 -0 -0 0 0 0 0 0 0 0 0 0 0 0 0 0 0 0 0
0 0 0 0 -0 0 -0 0 -0 0 0 0 -0 0 0 0 0 0 0 0 0 0 0 -0 0 0 -0 0 0 0 0 0 0 0 0 0 0 0 0 0 0 0 0 0
0 0 0 0 -0 -0 0 0 0 0 0 0 0 0 0 0 0 0 0 0 0 0 0 0 0 0 0 0 0 0 0 0 0 0 0 0 0 0 0 0 0 0 0 0
0 0 0 0 -0 0 -0 0 0 0 0 0 0 0 0 0 0 0 0 0 0 0 0 0 0 0 0 0 0 0 0 0 0 0 0 0 0 0 0 0 0 0 0 0
0 0 0 0 0 0 -0 0 0 0 0 0 0 0 0 0 0 0 0 0 0 0 0 0 0 0 0 0 0 0 0 0 0 0 0 0 0 0 0 0 0 0 0 0
0 0 0 0 0 0 0 0 0 0 0 0 0 0 0 0 0 0 0 0 0 0 0 0 0 0 0 0 0 0 0 0 0 0 0 0 0 0 0 0 0 0 0 0
0 0 0 0 0 0 0 0 0 0 0 0 0 0 0 0 0 0 0 0 0 0 0 0 0 0 0 0 0 0 0 0 0 0 0 0 0 0 0 0 0 0 0 0
0 0 0 0 0 0 0 0 0 0 0 0 0 0 0 0 0 0 0 0 0 0 0 0 0 0 0 0 0 0 0 0 0 0 0 0 0 0 0 0 0 0 0 0
0 0 0 0 0 0 0 0 0 0 0 0 0 0 0 0 0 0 0 0 0 0 0 0 0 0 0 0 0 0 0 0 0 0 0 0 0 0 0 0 0 0 0 0
0 0 0 0 0 0 0 0 0 0 0 0 0 0 0 0 0 0 0 0 0 0 0 0 0 0 0 0 0 0 0 0 0 0 0 0 0 0 0 0 0 0 0 0
0 0 0 0 0 0 0 0 0 0 0 0 0 0 0 0 0 0 0 0 0 0 0 0 0 0 0 0 0 0 0 0 0 0 0 0 0 0 0 0 0 0 0 0
0 0 0 0 0 0 0 0 0 0 0 0 0 0 0 0 0 0 0 0 0 0 0 0 0 0 0 0 0 0 0 0 0 0 0 0 0 0 0 0 0 0 0 0
0 0 0 0 0 0 0 0 0 0 0 0 0 0 0 0 0 0 0 0 0 0 0 0 0 0 0 0 0 0 0 0 0 0 0 0 0 0 0 0 0 0 0 0
0 0 0 0 0 0 0 0 0 0 0 0 0 0 0 0 0 0 0 0 0 0 0 0 0 0 0 0 0 0 0 0 0 0 0 0 0 0 0 0 0 0 0 0
0 0 0 0 0 0 0 0 0 0 0 0 0 0 0 0 0 0 0 0 0 0 0 0 0 0 0 0 0 0 0 0 0 0 0 0 0 0 0 0 0 0 0 0
0 0 0 0 0 0 0 0 0 0 0 0 0 0 0 0 0 0 0 0 0 0 0 0 0 0 0 0 0 0 0 0 0 0 0 0 0 0 0 0 0 0 0 0
0 0 0 0 0 0 0 0 0 0 0 0 0 0 0 0 0 0 0 0 0 0 0 0 0 0 0 0 0 0 0 0 0 0 0 0 0 0 0 0 0 0 0 0
0 0 -0 -0 -0 0 0 0 0 0 0 0 0 0 0 0 0 0 0 0 0 0 0 0 0 0 0 0 0 0 0 0 0 0 0 0 0 0 0 0 0 0 0 0
-0 -0 -0 0 0 0 0 0 0 0 0 0 0 0 0 0 0 0 0 0 0 0 0 0 0 0 0 0 0 0 0 0 0 0 0 0 0 0 0 0 0 0 0 0
-0 -0 0 0 0 0 0 0 0 0 0 0 0 0 0 0 0 0 0 0 0 0 0 0 0 0 0 0 0 0 0 0 0 0 0 0 0 0 0 0 0 0 0 0
0 0 0 0 0 0 0 0 0 0 0 0 0 0 0 0 0 0 0 0 0 0 0 0 0 0 0 0 0 0 0 0 0 0 0 0 0 0 0 0 0 0 0 0
0 0 0 0 0 0 0 0 0 0 0 0 0 0 0 0 0 0 0 0 0 0 0 0 0 0 0 0 0 0 0 0 0 0 0 0 0 0 0 0 0 0 0 0
0 0 0 0 0 0 0 0 0 0 0 0 0 0 0 0 0 0 0 0 0 0 0 0 0 0 0 0 0 0 0 0 0 0 0 0 0 0 0 0 0 0 0 -0
Wind_Speed_500mb
21 20 17 21 24 18 20 25 17 28 22 27 18 15 31 29 27 32 34 37 38 35 29 33 33 33 36 35 35 32 36 37 37 34 32 34 31 34 35 38 37 36 34 35
18 8 8 14 12 13 13 21 18 23 22 20 28 11 17 30 30 28 34 33 29 29 31 31 33 33 29 24 24 29 35 36 35 34 34 35 36 39 39 38 40 38 35 36
6 15 17 4 18 14 20 22 15 12 17 23 20 17 16 13 5 21 26 27 30 30 26 30 25 28 22 21 25 30 34 32 34 35 37 36 38 42 42 41 43 42 41 38
8 17 3 7 8 12 20 26 22 22 25 30 25 12 12 14 3 11 19 17 12 10 12 11 18 19 19 20 23 25 30 33 35 37 38 36 39 40 43 42 44 46 44 42
5 6 7 5 10 8 1 11 13 19 19 38 7 31 8 20 13 18 17 13 8 3 3 5 7 9 17 22 28 32 38 41 46 51 53 52 50 46 45 48 47 47 48 45
2 1 5 8 13 2 4 10 9 15 10 19 29 4 12 25 23 20 14 7 1 7 7 4 12 22 30 37 42 46 45 48 47 45 57 60 55 58 57 54 52 48 50 47
2 3 4 4 11 3 2 1 12 16 10 15 17 13 16 12 9 6 9 11 14 18 18 21 30 36 35 39 43 49 52 55 38 54 49 58 54 55 50 57 55 55 51 49
3 4 3 4 7 0 6 8 5 6 10 13 13 14 17 18 21 24 24 24 22 18 19 25 32 30 30 30 37 38 42 42 45 47 38 56 59 56 44 61 55 56 55 54
8 2 6 12 12 8 1 1 6 7 8 12 13 16 17 17 16 16 15 13 10 5 15 18 18 20 21 27 31 35 33 34 36 37 42 45 45 45 46 53 54 53 53 48
5 3 5 5 5 9 13 16 14 15 16 16 16 17 18 18 20 19 20 15 10 8 13 18 24 29 29 30 31 33 34 36 36 34 34 35 33 31 34 35 40 39 40 42
5 5 14 11 13 18 26 28 24 20 19 20 18 21 20 23 25 24 20 20 20 22 24 27 30 33 36 40 42 44 44 45 46 46 46 41 34 35 33 27 28 39 44 43
6 20 7 8 11 16 19 21 19 17 20 20 16 19 17 22 23 22 22 23 25 28 29 33 36 41 45 48 51 53 52 47 46 46 46 42 45 44 37 39 41 39 33 35
10 16 19 24 20 17 21 22 20 18 19 19 19 19 19 19 19 19 18 20 26 29 32 34 38 43 47 50 51 48 44 42 42 40 38 40 41 42 52 45 44 38 39 35
21 32 19 15 16 22 21 23 20 22 23 21 19 17 16 16 15 18 22 25 28 31 33 30 35 40 44 46 44 41 37 38 38 37 37 39 39 40 41 45 49 50 45 45
20 26 15 31 27 24 20 18 17 18 17 17 18 19 17 16 17 19 21 25 29 33 33 29 31 34 37 39 39 37 36 36 39 36 36 39 38 39 39 40 40 41 44 44
20 25 30 31 28 25 20 20 19 19 18 18 20 20 18 17 16 18 23 29 30 29 29 28 29 31 34 36 39 36 37 43 43 38 39 40 40 41 41 40 40 41 43 46
36 29 27 30 28 28 27 24 23 17 18 18 18 18 17 13 11 13 18 22 22 24 27 29 32 33 36 38 38 38 39 41 45 39 39 40 40 43 41 40 42 43 45 48
26 30 30 29 29 25 22 20 18 13 19 15 15 12 9 4 9 14 16 20 19 21 24 31 36 41 38 38 40 39 38 41 40 41 41 40 42 41 43 46 48 49 52 54
35 34 29 25 23 19 19 18 9 12 10 12 15 7 0 2 13 18 21 21 25 28 29 37 44 43 43 46 44 42 40 41 41 41 41 43 44 43 45 46 50 53 54 59
33 27 25 24 17 16 15 7 6 7 13 17 13 11 11 17 23 26 33 35 33 34 36 38 42 42 45 49 52 44 43 42 43 43 42 45 44 47 48 51 53 52 56 61
28 20 21 22 20 13 9 6 3 10 16 17 16 14 16 20 26 32 37 42 40 38 40 45 43 44 48 56 60 45 45 44 44 45 44 44 46 47 51 53 54 54 61 64
19 22 21 18 17 15 11 6 7 11 14 15 17 19 23 29 33 39 41 40 36 36 38 40 46 50 56 67 55 46 46 45 45 44 43 45 46 50 52 54 56 58 64 68
22 19 14 10 10 8 7 8 8 12 15 21 25 28 28 33 40 46 46 35 38 40 45 48 53 59 52 61 50 46 45 44 45 44 44 47 49 51 52 56 58 59 67 80
15 8 4 7 7 6 9 12 17 22 28 31 30 31 32 42 46 42 40 45 47 51 54 51 54 52 56 49 45 44 44 45 45 45 47 51 49 50 52 54 56 59 63 69
7 2 7 9 10 13 15 20 25 26 27 29 31 33 37 41 44 44 44 46 48 49 47 48 52 51 45 44 45 45 46 47 47 49 47 48 51 51 52 52 54 58 64 74
4 9 13 16 20 22 22 24 28 28 28 35 40 42 43 41 41 42 42 45 46 47 44 46 47 46 42 43 46 47 47 47 46 46 48 49 50 51 52 52 53 55 59 73
7 10 16 20 22 22 23 25 26 30 36 41 43 42 43 43 42 44 44 44 45 45 46 46 44 44 46 46 47 45 46 46 47 49 50 49 51 50 52 54 53 57 58 69
Wind_Direction_500mb
286 289 270 267 275 290 249 271 266 292 274 308 306 301 219 201 207 206 208 215 220 226 233 243 253 263 273 277 275 271 279 285 296 305 290 292 297 304 311 321 323 321 324 329
297 331 336 282 315 302 319 352 264 288 292 353 328 328 195 194 190 207 221 228 234 238 247 260 267 274 277 281 281 281 284 292 295 298 303 290 299 301 303 311 318 320 317 320
283 324 304 175 356 20 60 27 339 25 10 351 25 20 87 91 189 235 244 245 245 253 268 279 286 278 276 292 282 281 286 293 295 299 300 304 297 299 304 303 310 314 316 311
302 321 70 360 340 76 73 37 26 45 37 31 23 304 105 103 107 289 276 277 270 268 265 287 289 289 279 272 274 278 287 296 297 298 301 306 301 300 300 304 302 311 310 310
334 344 308 85 26 357 342 65 79 114 80 59 287 263 47 46 56 64 70 83 112 141 216 299 290 265 264 264 274 280 289 296 304 306 302 299 298 303 304 301 301 304 308 310
180 360 26 15 347 77 186 75 229 171 164 202 240 89 38 44 51 42 37 45 306 238 241 277 270 261 266 278 286 291 297 304 311 301 301 299 297 300 301 300 299 299 306 308
195 255 221 300 336 245 77 228 299 286 320 37 56 58 49 57 52 15 319 289 267 249 260 280 296 300 299 299 299 295 301 303 296 292 300 306 297 293 301 302 297 298 299 307
164 226 197 5 280 359 7 326 334 50 57 56 50 31 7 356 347 336 324 318 315 311 295 297 295 296 295 295 299 301 303 302 295 302 302 294 281 292 288 293 297 300 299 303
223 327 330 297 262 302 291 40 50 60 58 74 51 34 24 23 13 9 12 16 360 315 273 294 321 330 330 332 324 317 315 313 313 312 293 286 290 298 287 279 293 293 298 296
240 166 284 51 106 142 126 117 101 94 93 88 71 66 63 58 55 47 44 41 35 25 7 2 356 349 352 347 341 336 330 324 321 321 321 323 327 326 316 295 292 288 293 293
238 196 137 109 112 119 118 112 104 92 83 83 91 82 70 58 49 48 42 34 22 15 11 8 1 357 352 348 342 339 336 330 326 326 323 322 317 311 319 322 315 304 291 283
214 173 190 125 136 146 134 114 108 105 98 88 76 70 49 46 41 32 26 22 15 10 2 356 349 345 340 339 337 334 332 332 331 332 325 326 318 314 313 305 297 298 303 296
159 155 145 135 127 121 119 113 108 102 87 85 75 59 52 47 36 21 15 19 14 8 359 351 347 345 344 343 344 343 343 338 338 338 337 335 332 331 323 308 302 302 295 300
151 144 132 158 129 119 120 114 106 92 84 80 66 52 44 40 34 29 25 20 12 6 360 1 353 353 352 352 353 353 354 348 349 345 344 343 341 338 335 333 331 323 317 311
189 204 193 153 134 121 114 106 99 83 79 75 63 50 40 34 29 28 20 11 6 3 5 7 4 2 1 1 358 356 355 350 351 346 344 347 343 343 342 340 338 335 332 329
129 137 136 129 119 107 91 71 66 71 64 60 49 36 28 23 28 25 15 10 14 15 11 6 2 355 353 352 351 348 349 346 348 342 340 340 343 342 340 340 339 337 338 339
135 127 123 107 97 85 79 72 58 44 55 44 39 31 18 17 29 30 24 17 18 16 13 8 359 352 346 343 338 334 335 336 340 340 335 334 334 335 333 333 331 328 326 326
140 123 112 114 108 93 77 64 44 34 31 23 14 6 5 36 5 357 1 360 354 355 359 360 359 354 343 338 339 334 328 327 327 329 329 329 327 331 327 326 325 323 321 322
122 116 104 87 75 69 66 39 15 12 16 354 355 354 359 316 323 327 325 326 328 329 329 342 343 345 342 341 331 330 322 324 322 319 321 321 324 324 325 323 321 318 319 320
110 105 102 97 76 46 35 54 28 22 12 8 18 14 337 322 311 314 307 299 304 311 316 321 327 333 334 335 330 325 320 318 321 318 316 317 319 319 322 321 322 320 319 317
91 84 66 61 62 61 64 97 33 355 356 351 351 348 343 338 338 324 313 301 302 309 309 310 311 318 327 328 327 320 316 314 314 316 315 315 315 318 319 320 321 320 321 320
76 67 73 70 53 40 29 8 340 333 331 321 320 320 326 328 323 322 319 310 309 309 315 310 309 307 308 316 323 314 313 311 311 310 310 313 314 315 318 319 320 319 323 323
89 90 76 51 23 16 360 348 319 319 324 325 325 316 309 313 317 319 319 316 312 311 311 312 309 314 308 315 315 312 310 309 310 309 309 310 311 311 313 317 317 319 322 328
112 104 57 360 350 332 329 326 320 313 313 316 318 315 312 314 313 314 308 313 315 311 311 312 312 313 311 313 312 311 311 310 309 308 308 307 308 309 310 313 315 318 321 328
135 360 318 303 307 313 311 315 322 325 307 307 311 312 312 313 313 315 312 314 315 316 313 314 315 319 318 311 310 310 309 308 306 304 307 307 307 308 309 310 314 316 322 327
242 280 287 296 300 293 300 309 315 317 313 312 312 314 315 315 314 317 314 313 315 315 316 314 315 316 316 314 310 309 308 307 307 306 305 306 306 306 309 309 311 315 319 330
281 318 325 323 321 297 299 308 310 312 314 315 314 317 317 317 315 317 316 315 314 315 316 316 317 316 316 314 313 310 309 307 306 305 306 306 304 305 307 312 313 316 320 331
Wind_Speed_850mb
21 20 17 21 24 18 20 25 17 28 22 27 18 15 31 29 27 32 34 37 38 35 29 33 33 33 36 35 35 32 36 37 37 34 32 34 31 34 35 38 37 36 34 35
18 8 8 14 12 13 13 21 18 23 22 20 28 11 17 30 30 28 34 33 29 29 31 31 33 33 29 24 24 29 35 36 35 34 34 35 36 39 39 38 40 38 35 36
6 15 17 4 18 14 20 22 15 12 17 23 20 17 16 13 5 21 26 27 30 30 26 30 25 28 22 21 25 30 34 32 34 35 37 36 38 42 42 41 43 42 41 38
8 17 3 7 8 12 20 26 22 22 25 30 25 12 12 14 3 11 19 17 12 10 12 11 18 19 19 20 23 25 30 33 35 37 38 36 39 40 43 42 44 46 44 42
5 6 7 5 10 8 1 11 13 19 19 38 7 31 8 20 13 18 17 13 8 3 3 5 7 9 17 22 28 32 38 41 46 51 53 52 50 46 45 48 47 47 48 45
2 1 5 8 13 2 4 10 9 15 10 19 29 4 12 25 23 20 14 7 1 7 7 4 12 22 30 37 42 46 45 48 47 45 57 60 55 58 57 54 52 48 50 47
2 3 4 4 11 3 2 1 12 16 10 15 17 13 16 12 9 6 9 11 14 18 18 21 30 36 35 39 43 49 52 55 38 54 49 58 54 55 50 57 55 55 51 49
3 4 3 4 7 0 6 8 5 6 10 13 13 14 17 18 21 24 24 24 22 18 19 25 32 30 30 30 37 38 42 42 45 47 38 56 59 56 44 61 55 56 55 54
8 2 6 12 12 8 1 1 6 7 8 12 13 16 17 17 16 16 15 13 10 5 15 18 18 20 21 27 31 35 33 34 36 37 42 45 45 45 46 53 54 53 53 48
5 3 5 5 5 9 13 16 14 15 16 16 16 17 18 18 20 19 20 15 10 8 13 18 24 29 29 30 31 33 34 36 36 34 34 35 33 31 34 35 40 39 40 42
5 5 14 11 13 18 26 28 24 20 19 20 18 21 20 23 25 24 20 20 20 22 24 27 30 33 36 40 42 44 44 45 46 46 46 41 34 35 33 27 28 39 44 43
6 20 7 8 11 16 19 21 19 17 20 20 16 19 17 22 23 22 22 23 25 28 29 33 36 41 45 48 51 53 52 47 46 46 46 42 45 44 37 39 41 39 33 35
10 16 19 24 20 17 21 22 20 18 19 19 19 19 19 19 19 19 18 20 26 29 32 34 38 43 47 50 51 48 44 42 42 40 38 40 41 42 52 45 44 38 39 35
21 32 19 15 16 22 21 23 20 22 23 21 19 17 16 16 15 18 22 25 28 31 33 30 35 40 44 46 44 41 37 38 38 37 37 39 39 40 41 45 49 50 45 45
20 26 15 31 27 24 20 18 17 18 17 17 18 19 17 16 17 19 21 25 29 33 33 29 31 34 37 39 39 37 36 36 39 36 36 39 38 39 39 40 40 41 44 44
20 25 30 31 28 25 20 20 19 19 18 18 20 20 18 17 16 18 23 29 30 29 29 28 29 31 34 36 39 36 37 43 43 38 39 40 40 41 41 40 40 41 43 46
36 29 27 30 28 28 27 24 23 17 18 18 18 18 17 13 11 13 18 22 22 24 27 29 32 33 36 38 38 38 39 41 45 39 39 40 40 43 41 40 42 43 45 48
26 30 30 29 29 25 22 20 18 13 19 15 15 12 9 4 9 14 16 20 19 21 24 31 36 41 38 38 40 39 38 41 40 41 41 40 42 41 43 46 48 49 52 54
35 34 29 25 23 19 19 18 9 12 10 12 15 7 0 2 13 18 21 21 25 28 29 37 44 43 43 46 44 42 40 41 41 41 41 43 44 43 45 46 50 53 54 59
33 27 25 24 17 16 15 7 6 7 13 17 13 11 11 17 23 26 33 35 33 34 36 38 42 42 45 49 52 44 43 42 43 43 42 45 44 47 48 51 53 52 56 61
28 20 21 22 20 13 9 6 3 10 16 17 16 14 16 20 26 32 37 42 40 38 40 45 43 44 48 56 60 45 45 44 44 45 44 44 46 47 51 53 54 54 61 64
19 22 21 18 17 15 11 6 7 11 14 15 17 19 23 29 33 39 41 40 36 36 38 40 46 50 56 67 55 46 46 45 45 44 43 45 46 50 52 54 56 58 64 68
22 19 14 10 10 8 7 8 8 12 15 21 25 28 28 33 40 46 46 35 38 40 45 48 53 59 52 61 50 46 45 44 45 44 44 47 49 51 52 56 58 59 67 80
15 8 4 7 7 6 9 12 17 22 28 31 30 31 32 42 46 42 40 45 47 51 54 51 54 52 56 49 45 44 44 45 45 45 47 51 49 50 52 54 56 59 63 69
7 2 7 9 10 13 15 20 25 26 27 29 31 33 37 41 44 44 44 46 48 49 47 48 52 51 45 44 45 45 46 47 47 49 47 48 51 51 52 52 54 58 64 74
4 9 13 16 20 22 22 24 28 28 28 35 40 42 43 41 41 42 42 45 46 47 44 46 47 46 42 43 46 47 47 47 46 46 48 49 50 51 52 52 53 55 59 73
7 10 16 20 22 22 23 25 26 30 36 41 43 42 43 43 42 44 44 44 45 45 46 46 44 44 46 46 47 45 46 46 47 49 50 49 51 50 52 54 53 57 58 69
Wind_Direction_850mb
286 289 270 267 275 290 249 271 266 292 274 308 306 301 219 201 207 206 208 215 220 226 233 243 253 263 273 277 275 271 279 285 296 305 290 292 297 304 311 321 323 321 324 329
297 331 336 282 315 302 319 352 264 288 292 353 328 328 195 194 190 207 221 228 234 238 247 260 267 274 277 281 281 281 284 292 295 298 303 290 299 301 303 311 318 320 317 320
283 324 304 175 356 20 60 27 339 25 10 351 25 20 87 91 189 235 244 245 245 253 268 279 286 278 276 292 282 281 286 293 295 299 300 304 297 299 304 303 310 314 316 311
302 321 70 360 340 76 73 37 26 45 37 31 23 304 105 103 107 289 276 277 270 268 265 287 289 289 279 272 274 278 287 296 297 298 301 306 301 300 300 304 302 311 310 310
334 344 308 85 26 357 342 65 79 114 80 59 287 263 47 46 56 64 70 83 112 141 216 299 290 265 264 264 274 280 289 296 304 306 302 299 298 303 304 301 301 304 308 310
180 360 26 15 347 77 186 75 229 171 164 202 240 89 38 44 51 42 37 45 306 238 241 277 270 261 266 278 286 291 297 304 311 301 301 299 297 300 301 300 299 299 306 308
195 255 221 300 336 245 77 228 299 286 320 37 56 58 49 57 52 15 319 289 267 249 260 280 296 300 299 299 299 295 301 303 296 292 300 306 297 293 301 302 297 298 299 307
164 226 197 5 280 359 7 326 334 50 57 56 50 31 7 356 347 336 324 318 315 311 295 297 295 296 295 295 299 301 303 302 295 302 302 294 281 292 288 293 297 300 299 303
223 327 330 297 262 302 291 40 50 60 58 74 51 34 24 23 13 9 12 16 360 315 273 294 321 330 330 332 324 317 315 313 313 312 293 286 290 298 287 279 293 293 298 296
240 166 284 51 106 142 126 117 101 94 93 88 71 66 63 58 55 47 44 41 35 25 7 2 356 349 352 347 341 336 330 324 321 321 321 323 327 326 316 295 292 288 293 293
238 196 137 109 112 119 118 112 104 92 83 83 91 82 70 58 49 48 42 34 22 15 11 8 1 357 352 348 342 339 336 330 326 326 323 322 317 311 319 322 315 304 291 283
214 173 190 125 136 146 134 114 108 105 98 88 76 70 49 46 41 32 26 22 15 10 2 356 349 345 340 339 337 334 332 332 331 332 325 326 318 314 313 305 297 298 303 296
159 155 145 135 127 121 119 113 108 102 87 85 75 59 52 47 36 21 15 19 14 8 359 351 347 345 344 343 344 343 343 338 338 338 337 335 332 331 323 308 302 302 295 300
151 144 132 158 129 119 120 114 106 92 84 80 66 52 44 40 34 29 25 20 12 6 360 1 353 353 352 352 353 353 354 348 349 345 344 343 341 338 335 333 331 323 317 311
189 204 193 153 134 121 114 106 99 83 79 75 63 50 40 34 29 28 20 11 6 3 5 7 4 2 1 1 358 356 355 350 351 346 344 347 343 343 342 340 338 335 332 329
129 137 136 129 119 107 91 71 66 71 64 60 49 36 28 23 28 25 15 10 14 15 11 6 2 355 353 352 351 348 349 346 348 342 340 340 343 342 340 340 339 337 338 339
135 127 123 107 97 85 79 72 58 44 55 44 39 31 18 17 29 30 24 17 18 16 13 8 359 352 346 343 338 334 335 336 340 340 335 334 334 335 333 333 331 328 326 326
140 123 112 114 108 93 77 64 44 34 31 23 14 6 5 36 5 357 1 360 354 355 359 360 359 354 343 338 339 334 328 327 327 329 329 329 327 331 327 326 325 323 321 322
122 116 104 87 75 69 66 39 15 12 16 354 355 354 359 316 323 327 325 326 328 329 329 342 343 345 342 341 331 330 322 324 322 319 321 321 324 324 325 323 321 318 319 320
110 105 102 97 76 46 35 54 28 22 12 8 18 14 337 322 311 314 307 299 304 311 316 321 327 333 334 335 330 325 320 318 321 318 316 317 319 319 322 321 322 320 319 317
91 84 66 61 62 61 64 97 33 355 356 351 351 348 343 338 338 324 313 301 302 309 309 310 311 318 327 328 327 320 316 314 314 316 315 315 315 318 319 320 321 320 321 320
76 67 73 70 53 40 29 8 340 333 331 321 320 320 326 328 323 322 319 310 309 309 315 310 309 307 308 316 323 314 313 311 311 310 310 313 314 315 318 319 320 319 323 323
89 90 76 51 23 16 360 348 319 319 324 325 325 316 309 313 317 319 319 316 312 311 311 312 309 314 308 315 315 312 310 309 310 309 309 310 311 311 313 317 317 319 322 328
112 104 57 360 350 332 329 326 320 313 313 316 318 315 312 314 313 314 308 313 315 311 311 312 312 313 311 313 312 311 311 310 309 308 308 307 308 309 310 313 315 318 321 328
135 360 318 303 307 313 311 315 322 325 307 307 311 312 312 313 313 315 312 314 315 316 313 314 315 319 318 311 310 310 309 308 306 304 307 307 307 308 309 310 314 316 322 327
242 280 287 296 300 293 300 309 315 317 313 312 312 314 315 315 314 317 314 313 315 315 316 314 315 316 316 314 310 309 308 307 307 306 305 306 306 306 309 309 311 315 319 330
281 318 325 323 321 297 299 308 310 312 314 315 314 317 317 317 315 317 316 315 314 315 316 316 317 316 316 314 313 310 309 307 306 305 306 306 304 305 307 312 313 316 320 331